Flag for Germany Weather past 2 weeks in Mönchengladbach, North Rhine-Westphalia, Germany

Now
77 °F

Clear.


Feels Like: 79 °F
Forecast: 64 / 73 °F
Wind: 2 mph from North

Location: Monchengladbach Airport

Current Time: Aug 4, 2015 at 12:34:08 AM

Latest Report: Aug 3, 2015 at 8:50 PM


Visibility: 10 mi

Pressure: 29.89 "Hg

Humidity: 54%

Dew point: 59 °F

Location of MönchengladbachLocation

Historic Weather in Mönchengladbach — Graph

°F

Mönchengladbach temperature yesterday

Maximum temperature yesterday: 91 °F (at 4:20 PM)
Minimum temperature yesterday: 66 °F (at 7:50 AM)
Average temperature yesterday: 84 °F

Past Weeks' High & Low Weather Summary

 TemperatureHumidityPressure
High91 °F (Aug 3, 4:20 PM)100% (Jul 20, 7:50 AM)30.15 "Hg (Jul 20, 7:50 AM)
Low54 °F (Jul 31, 8:20 AM)24% (Aug 2, 4:50 PM)29.50 "Hg (Jul 25, 7:50 AM)
Average68 °F62%29.90 "Hg
* Reported Jul 20 7:50 AM — Aug 3 8:50 PM, Mönchengladbach, Weather by CustomWeather, © 2015

Note: Actual official high and low records may vary slightly from our data, if they occured in-between our weather recording intervals... More about our weather records

Advertising

Mönchengladbach weather history for previous 24 hours

 ConditionsComfort  
Time TempWeatherWind HumidityBarometerVisibility
8:50 PM
Mon, Aug 3
77 °FClear.2 mph54%29.89 "Hg10 mi
8:20 PM86 °FPassing clouds.5 mph31%29.89 "HgN/A
7:50 PM90 °FPassing clouds.5 mph29%29.89 "HgN/A
7:20 PM90 °FPassing clouds.6 mph27%29.89 "HgN/A
6:50 PM90 °FClear.7 mph27%29.89 "Hg10 mi
6:20 PM90 °FPassing clouds.6 mph29%29.89 "HgN/A
5:50 PM91 °FClear.8 mph28%29.89 "Hg10 mi
5:20 PM91 °FClear.8 mph26%29.92 "Hg10 mi
4:50 PM90 °FClear.9 mph29%29.92 "Hg10 mi
4:20 PM91 °FClear.7 mph26%29.92 "Hg10 mi
3:50 PM90 °FClear.8 mph27%29.92 "Hg10 mi
3:20 PM90 °FClear.8 mph27%29.92 "Hg10 mi
2:50 PM90 °FClear.6 mph26%29.95 "Hg10 mi
2:20 PM90 °FClear.7 mph29%29.95 "Hg10 mi
1:50 PM90 °FClear.9 mph29%29.95 "Hg10 mi
1:20 PM90 °FSunny.8 mph29%29.95 "Hg10 mi
12:50 PM88 °FSunny.7 mph33%29.95 "Hg10 mi
12:20 PM86 °FSunny.6 mph40%29.95 "Hg10 mi
11:50 AM84 °FSunny.8 mph43%29.95 "Hg10 mi
11:20 AM82 °FSunny.8 mph45%29.98 "Hg10 mi
10:50 AM79 °FSunny.7 mph45%29.98 "Hg10 mi
10:20 AM77 °FSunny.7 mph51%29.98 "Hg10 mi
9:50 AM75 °FSunny.6 mph54%29.98 "Hg10 mi
9:20 AM73 °FSunny.6 mph57%29.98 "Hg10 mi
8:50 AM70 °FPassing clouds.7 mph57%29.98 "HgN/A
8:20 AM68 °FPassing clouds.6 mph60%29.98 "HgN/A
7:50 AM66 °FPassing clouds.6 mph64%29.98 "HgN/A
Weather by CustomWeather, © 2015

See weather overviewHow to use our weather pages